This is the latest recevied weather packets stored in our database for station/object SP6PGH-13. If no packets are shown the sender has not sent any weather packets the latest 1 day(s).
| Time | Temp. | Humidity | Pressure | Rain* | Wind** | Luminosity | Snow |
|---|---|---|---|---|---|---|---|
| 1778019247 | 15° C | 68% | 991.1 hPa | - | 0.45 m/s, 30° | - | - |
| 1778018346 | 15.56° C | 68% | 991.3 hPa | - | 0.45 m/s, 0° | - | - |
| 1778017445 | 15.56° C | 67% | 991.4 hPa | - | 0.45 m/s, 348° | - | - |
| 1778016544 | 16.11° C | 67% | 991.4 hPa | - | 0.45 m/s, 352° | - | - |
| 1778015643 | 16.67° C | 68% | 991.3 hPa | - | 0.89 m/s, 321° | - | - |
| 1778014742 | 17.22° C | 67% | 991.3 hPa | - | 0.89 m/s, 54° | - | - |
| 1778013841 | 17.22° C | 67% | 991.4 hPa | - | 1.34 m/s, 66° | - | - |
| 1778012939 | 17.22° C | 68% | 991.5 hPa | - | 0.45 m/s, 353° | - | - |
| 1778012038 | 17.22° C | 70% | 991.5 hPa | - | 0.89 m/s, 275° | - | - |
| 1778011137 | 17.22° C | 71% | 991.5 hPa | - | 0.89 m/s, 312° | - | - |
| 1778010236 | 17.78° C | 71% | 991.5 hPa | - | 0.89 m/s, 330° | - | - |
| 1778009335 | 18.33° C | 70% | 991.7 hPa | - | 0.89 m/s, 25° | - | - |
| 1778008434 | 17.78° C | 72% | 991.8 hPa | - | 0 m/s | - | - |
| 1778007533 | 18.89° C | 69% | 991.9 hPa | - | 0.45 m/s, 288° | - | - |
| 1778006632 | 19.44° C | 66% | 992 hPa | - | 0.45 m/s, 280° | - | - |
| 1778005731 | 20° C | 65% | 991.4 hPa | - | 0.89 m/s, 352° | - | - |
| 1778004830 | 20.56° C | 65% | 991.2 hPa | - | 0.89 m/s, 296° | 2 W/m² | - |
| 1778003929 | 21.11° C | 63% | 991.1 hPa | - | 0.89 m/s, 350° | 6 W/m² | - |
| 1778003028 | 21.67° C | 62% | 990.9 hPa | - | 0.89 m/s, 202° | 16 W/m² | - |
| 1778002126 | 22.22° C | 60% | 991 hPa | - | 0.89 m/s, 200° | 27 W/m² | - |
| 1778001226 | 22.78° C | 58% | 990.8 hPa | - | 0.89 m/s, 301° | 35 W/m² | - |
| 1778000325 | 23.89° C | 47% | 990.8 hPa | - | 0.45 m/s, 274° | 51 W/m² | - |
| 1777999424 | 25.56° C | 36% | 990.7 hPa | - | 0.45 m/s, 332° | 79 W/m² | - |
| 1777998523 | 25.56° C | 36% | 990.8 hPa | - | 0.45 m/s, 288° | 97 W/m² | - |
| 1777997622 | 26.11° C | 35% | 990.8 hPa | - | 0.45 m/s, 336° | 121 W/m² | - |
* Rain since midnight (hover to see other rain measurements)
** Current wind speed in m/s (hover to see current wind gust speed)